EHI
18 20 21 19 17 16 17 17 19 19 16 12 11 11 11 9 7 7 7 4 2 1 0 0 0 1 2 4 6 6 5 4 3 2 2 2 2 1 2 2 1 1 1
23 24 24 22 19 18 18 17 16 15 13 11 11 11 10 9 7 6 5 3 1 1 1 0 0 1 2 4 5 5 4 3 2 2 1 1 2 2 3 2 2 1 2
26 25 25 24 21 19 18 16 13 11 10 9 9 9 9 8 8 7 5 4 3 3 3 1 0 1 2 2 3 3 2 1 1 1 0 1 1 3 3 3 2 1 1
24 24 23 23 21 19 17 16 13 10 8 7 7 7 7 7 7 7 7 6 6 6 4 2 1 0 1 1 2 2 1 1 0 0 0 1 2 3 3 2 1 1 0
25 23 22 21 19 17 16 15 12 9 8 7 6 5 5 4 4 4 5 5 6 5 4 3 1 0 0 1 1 1 1 1 0 0 0 1 2 3 2 1 0 0 0
28 25 22 19 16 14 14 12 10 8 6 5 4 4 3 3 2 2 2 3 3 4 3 2 1 0 0 0 0 0 0 0 0 0 0 0 1 2 1 0 1 1 1
31 27 23 20 16 13 11 9 7 5 4 3 3 3 3 3 1 0 1 1 2 2 2 1 0 0 0 0 0 0 0 0 0 0 0 0 1 2 1 0 1 2 3
30 27 23 19 15 12 9 7 5 4 3 3 3 3 3 2 1 0 0 0 0 1 0 0 0 0 0 0 0 0 0 0 0 0 0 0 2 3 2 1 2 3 3
27 25 20 16 14 11 9 7 6 5 4 3 3 3 3 2 1 0 0 0 0 0 0 0 0 0 0 0 0 0 0 0 0 0 0 0 1 1 1 0 1 2 2
25 23 19 16 14 12 9 7 6 6 5 4 3 3 3 2 1 0 0 0 0 0 0 0 0 0 0 0 0 0 0 0 0 0 0 0 0 0 0 0 0 1 1
25 22 19 16 13 11 8 7 6 6 6 5 4 3 3 2 1 0 0 0 0 0 0 0 0 0 0 0 0 0 0 0 0 0 0 0 0 0 0 0 0 0 1
23 20 16 13 10 8 7 6 6 6 6 5 4 3 1 1 0 0 0 0 0 0 0 0 0 0 0 0 0 0 0 0 0 0 0 0 0 0 0 0 0 0 0
19 16 12 9 7 6 6 5 4 4 4 4 3 1 0 0 0 0 0 0 0 0 0 0 0 0 0 0 0 0 0 0 0 0 0 0 0 0 0 0 0 0 0
15 12 8 7 7 7 6 4 3 3 3 3 2 1 0 0 0 0 0 0 0 0 0 0 0 0 0 0 0 0 0 0 0 0 0 0 0 0 0 0 0 0 0
13 10 8 7 8 7 6 3 2 2 2 1 1 0 0 0 0 0 0 0 0 0 0 1 1 0 0 0 0 0 0 0 0 0 0 0 0 0 0 0 0 0 0
9 8 8 8 8 7 5 3 1 1 1 0 0 0 0 0 0 0 0 0 0 0 0 1 1 0 0 0 0 0 0 1 1 1 1 0 0 0 0 0 0 0 0
7 6 6 6 6 5 5 3 1 0 0 0 0 0 0 0 0 0 0 0 0 0 0 0 0 0 0 0 0 0 1 2 2 2 2 1 0 0 0 0 0 0 0
4 3 3 3 3 4 4 2 1 0 0 0 0 0 0 0 0 0 0 0 0 0 0 0 0 0 0 0 1 1 1 3 3 3 2 1 0 0 0 0 0 0 0
2 1 1 1 1 2 2 1 0 0 0 0 0 0 0 0 0 0 0 0 0 0 0 0 0 0 0 1 2 2 2 2 3 3 1 0 0 0 0 0 0 0 0
1 0 0 0 0 1 1 0 0 0 0 0 0 0 0 0 0 0 0 0 0 0 0 0 0 0 0 1 1 1 1 1 2 2 1 0 0 0 0 0 0 0 0
1 0 0 0 0 0 0 0 0 0 0 0 0 0 0 0 0 0 0 0 0 0 0 0 0 0 0 0 0 0 0 0 1 1 0 0 0 0 0 0 0 0 0
0 0 0 0 0 0 0 0 0 0 0 0 0 0 0 0 0 0 0 0 0 0 0 0 0 0 0 0 0 0 0 0 0 0 0 0 0 0 0 0 0 0 0
0 0 0 0 0 0 0 0 0 0 0 0 0 0 0 0 0 0 0 0 0 0 0 0 0 0 0 0 0 0 0 0 0 0 0 0 0 0 0 0 0 0 0
0 0 0 0 0 0 0 0 0 0 0 0 0 0 0 0 0 0 0 0 0 0 0 0 0 0 0 0 0 0 0 0 0 0 0 0 0 0 0 0 0 0 0
0 0 0 0 0 0 0 0 0 0 0 0 0 0 0 0 0 0 0 0 0 0 0 0 0 0 0 0 0 0 0 0 0 0 0 0 0 0 0 0 0 0 0
0 0 0 0 0 0 0 0 0 0 0 0 0 0 0 0 0 0 0 0 0 0 0 0 0 0 0 0 0 0 0 0 0 0 0 0 0 0 0 0 0 0 0
Wind_Speed
5 4 3 3 3 3 2 3 3 3 3 3 3 3 3 3 3 2 2 2 2 2 3 3 3 3 3 2 2 2 1 1 1 1 2 2 3 3 3 3 2 3 4
5 5 4 4 4 3 4 4 4 4 3 3 3 3 4 4 4 3 3 3 3 3 4 3 3 3 3 3 2 1 1 1 1 1 1 2 3 3 3 2 2 3 4
7 6 6 5 5 4 5 4 4 4 4 4 4 4 4 4 4 4 4 4 4 4 4 4 4 4 3 3 3 2 2 2 1 2 2 2 2 3 3 3 4 3 3
7 7 6 6 5 5 5 5 5 4 4 5 4 5 5 5 5 4 4 4 4 5 5 5 6 6 5 4 3 3 3 2 3 3 3 3 3 3 2 2 3 3 4
7 7 7 6 6 6 6 5 5 5 6 5 5 6 6 5 6 5 4 5 5 5 6 6 7 9 11 8 6 5 4 3 2 3 3 3 3 2 2 2 3 3 4
8 7 7 6 6 6 6 6 6 6 6 6 6 6 7 7 8 9 5 5 5 6 6 5 6 8 10 11 12 12 10 6 4 3 3 4 3 3 2 2 2 2 2
8 7 7 6 6 6 6 6 6 7 7 7 7 7 8 8 8 8 7 5 6 6 6 5 5 7 6 7 8 9 11 11 8 5 5 4 3 3 2 2 3 3 3
8 8 7 7 7 7 6 6 6 6 6 6 6 7 7 8 7 6 4 6 7 7 7 6 7 7 8 6 7 8 8 8 8 6 6 5 5 4 3 2 3 3 3
9 8 7 7 7 7 7 7 6 6 6 6 6 6 7 7 7 6 4 5 6 8 8 9 8 8 9 7 5 6 7 7 9 9 8 6 7 6 5 2 2 2 3
8 8 7 7 7 7 7 7 6 6 6 6 6 6 6 7 7 7 6 4 6 6 7 8 11 9 8 8 5 5 6 5 5 6 6 5 6 6 5 5 4 2 2
8 8 7 7 7 7 7 6 6 6 6 6 6 6 6 6 6 7 8 3 4 5 5 6 7 8 8 7 6 6 4 2 3 4 5 5 5 5 6 6 6 5 4
9 8 8 7 7 7 7 7 6 6 7 6 5 5 5 5 6 6 7 7 5 5 5 6 7 6 6 7 6 5 5 5 2 4 4 5 5 5 5 6 6 6 5
9 9 8 8 6 7 7 7 6 5 4 5 4 4 5 5 6 5 5 5 5 4 6 8 6 3 4 5 4 3 4 1 3 3 4 4 4 4 3 3 4 3 5
9 9 8 8 7 6 5 5 4 4 4 4 4 4 4 4 4 4 5 5 6 5 5 6 5 2 2 3 2 1 3 4 4 3 3 3 3 3 3 3 2 2 3
9 8 8 7 7 6 5 3 2 4 2 1 3 3 3 4 4 4 2 2 2 3 2 3 3 3 2 2 3 3 2 2 2 2 2 2 2 2 3 3 2 2 2
9 8 7 7 6 6 7 6 10 7 7 7 7 4 5 6 6 4 4 4 3 2 2 2 2 1 1 2 2 2 2 2 2 2 2 2 2 2 2 2 2 2 2
8 7 6 6 7 6 7 7 7 6 6 6 5 5 5 6 5 4 3 2 1 2 3 1 1 1 1 1 1 2 2 2 2 1 2 2 2 1 1 2 2 2 2
8 7 6 6 6 6 6 6 6 7 7 6 4 4 4 5 4 4 4 5 4 4 2 1 1 1 1 1 1 1 1 1 0 1 1 1 2 2 2 2 2 3 2
7 7 6 6 6 6 6 6 6 6 6 6 7 6 6 6 5 4 5 5 2 3 2 1 1 1 1 1 1 1 1 1 1 2 1 1 2 2 2 2 1 0 3
6 7 7 6 6 6 6 6 6 6 6 5 5 6 8 7 6 6 5 3 2 1 1 1 1 1 0 0 0 1 1 1 1 2 1 1 2 2 2 3 3 2 2
7 8 8 7 6 6 6 6 6 6 6 5 4 4 2 5 5 5 4 4 3 2 1 1 2 2 1 1 1 1 2 1 1 2 2 2 2 2 3 3 2 3 3
7 8 8 7 6 6 6 6 6 5 6 6 5 6 5 5 4 4 4 4 4 3 2 2 2 1 0 1 1 1 2 1 1 2 2 2 2 3 3 3 3 3 3
7 8 7 6 6 6 6 6 6 6 6 5 5 5 6 5 4 4 3 3 3 3 3 2 2 2 2 1 1 2 2 2 2 2 3 3 3 3 3 3 4 4 4
7 8 8 7 7 7 7 6 6 6 6 5 5 5 5 5 4 4 4 4 4 4 3 3 3 2 2 2 2 2 0 2 4 3 4 5 5 4 4 3 4 4 4
7 7 7 7 7 7 7 6 6 6 6 6 5 5 5 5 5 5 4 4 4 4 5 4 3 4 4 4 3 1 3 1 2 6 5 5 5 5 5 5 5 5 5
6 6 6 6 6 6 6 6 6 6 6 5 5 5 5 5 5 5 4 4 5 4 5 4 5 5 5 5 3 2 3 2 2 4 7 6 6 5 5 6 6 6 6
Wind_Direction
148 146 136 130 126 120 101 92 83 72 69 67 64 62 54 50 44 36 25 24 23 18 2 2 356 336 328 320 308 297 285 247 221 0 36 61 61 63 64 67 77 82 82
138 132 126 120 114 107 95 89 89 84 77 72 69 66 58 51 47 40 35 32 27 19 9 4 358 354 352 337 340 344 7 52 143 111 53 65 60 69 68 61 65 75 81
134 130 123 118 108 98 90 87 88 88 79 73 68 67 60 55 55 51 47 44 39 34 26 22 16 15 11 13 3 21 38 73 91 109 91 77 69 71 77 76 69 58 75
137 131 124 118 110 105 97 90 89 89 83 75 71 67 65 62 59 57 61 60 55 51 46 42 35 31 23 20 36 39 43 65 81 94 90 85 74 59 53 68 76 64 59
137 129 123 120 115 111 104 97 92 88 85 80 77 72 67 64 49 47 67 68 63 65 61 59 58 53 46 37 36 40 44 50 70 78 81 79 67 50 38 36 69 80 68
138 130 126 125 119 112 105 101 95 88 84 82 78 75 69 61 42 32 33 74 69 67 64 64 75 67 66 64 58 51 42 41 42 47 65 64 52 36 34 37 56 62 67
136 132 133 132 121 113 110 105 99 95 91 86 83 80 78 65 48 41 25 61 72 66 63 58 61 64 64 73 81 77 62 50 39 37 55 46 51 39 38 67 59 51 52
139 137 136 131 125 120 114 105 99 95 94 90 86 85 83 70 50 41 24 77 74 71 66 60 62 60 45 39 69 72 66 55 47 48 52 45 47 40 38 72 90 104 99
144 144 140 136 131 128 122 115 110 107 102 98 90 86 86 79 49 28 3 92 86 77 70 62 58 66 31 13 68 77 80 86 84 77 67 70 66 48 18 44 76 93 94
144 142 140 138 136 131 125 122 117 114 110 106 96 89 87 82 53 23 348 92 94 95 90 82 62 48 28 11 62 73 74 67 73 91 93 96 81 77 54 29 20 37 73
140 138 138 135 133 132 129 125 127 124 116 109 107 100 91 84 76 41 12 48 86 92 91 85 73 49 42 28 37 60 40 360 86 88 90 83 78 68 58 48 27 20 26
139 139 138 139 140 136 133 130 130 131 131 128 126 120 112 101 76 66 44 33 21 80 79 84 85 73 60 48 52 27 326 303 67 72 70 64 59 57 59 56 48 47 43
145 144 142 141 137 139 141 140 144 154 152 146 146 136 125 120 113 101 84 61 37 68 78 76 88 111 133 101 69 335 305 18 53 58 59 57 58 56 62 91 99 97 91
148 145 146 146 143 140 147 151 153 155 154 154 147 136 131 136 133 142 145 140 143 132 124 129 149 148 123 95 147 130 56 39 24 49 53 58 62 73 62 52 53 70 83
150 150 152 150 144 140 125 84 107 85 55 116 142 142 143 134 92 41 30 96 91 91 146 157 152 140 129 104 90 67 62 82 63 48 45 52 55 59 57 54 34 27 56
156 159 159 153 151 149 138 117 55 63 64 51 39 44 89 91 111 98 75 60 49 344 271 141 113 91 76 77 81 94 84 57 37 34 31 26 29 38 46 42 28 23 36
162 162 159 156 159 159 155 152 142 110 81 71 66 63 88 121 125 132 133 129 173 252 233 155 109 83 60 55 47 45 63 66 13 5 16 14 2 7 25 29 26 8 10
164 157 162 161 162 162 163 163 161 158 155 145 128 124 134 142 151 162 175 191 185 206 215 164 125 98 76 39 34 29 30 56 26 337 356 347 338 337 351 352 14 353 338
168 166 167 162 164 166 167 166 162 161 158 153 151 151 166 167 171 184 209 229 198 179 174 157 140 118 107 88 36 357 348 357 360 314 334 325 317 314 327 321 332 33 295
167 156 165 170 168 168 169 166 163 166 166 165 168 164 166 185 185 176 196 217 218 192 179 156 126 70 39 331 267 286 276 269 262 276 319 304 303 307 310 307 314 311 300
165 162 174 180 174 172 169 167 167 172 173 172 168 145 191 202 185 178 182 188 198 187 179 178 169 183 187 226 258 275 295 305 312 317 316 306 309 309 305 305 302 302 310
170 169 180 180 170 170 167 168 173 175 175 174 165 158 185 223 195 185 185 181 183 185 184 204 209 190 204 236 257 280 280 289 306 308 305 298 290 293 298 304 311 313 305
176 174 173 171 166 159 174 176 177 179 176 174 175 172 181 203 200 194 187 180 179 184 186 201 223 205 181 211 244 264 286 307 312 312 297 291 291 290 291 297 295 294 304
178 176 173 171 172 175 180 179 181 179 174 177 186 186 187 191 201 194 195 189 188 192 199 207 220 209 206 231 236 232 305 337 310 289 289 291 289 290 289 286 288 300 296
179 180 178 176 177 178 178 180 181 182 184 187 193 194 191 193 197 197 197 197 201 203 205 212 214 214 215 228 245 261 89 81 304 308 282 274 279 283 286 289 291 292 291
175 178 181 179 180 182 184 185 185 186 187 191 193 196 199 200 198 196 198 205 206 200 208 212 214 219 224 231 224 154 143 182 233 274 283 277 274 276 286 285 286 284 282